Акжал

Казахстан     49˚12′43″N   81˚25′27″E
темп.,
°C
ветер,
м/с
пор.,
м/с
влажн.,
%
обл.,
%
осадки,
мм/ч
давл.,
гПа
погр.,
м
6 декабря, вс
вс600:00−15˚юв11721 0.0 104120
03:00−16˚ссв00730 0.0 104120
06:00−16˚юв01721 0.0 104220
09:00−16˚в00724 0.0 104320
12:00−12˚св11733 0.0 104338
15:00−12˚ссв12770 0.0 104220
18:00−15˚ююв01730 0.0 104320
21:00−16˚юв12730 0.0 104320
7 декабря, пн
пн700:00−16˚юв11770 0.0 104220
03:00−17˚юв11780 0.0 104120
06:00−17˚вюв11750 0.0 104020
09:00−16˚юв11720 0.0 103920
12:00−12˚св11720 0.0 103748
15:00−12˚с12720 0.0 103621
18:00−16˚св11710 0.0 103620
21:00−17˚ююз00710 0.0 103720
8 декабря, вт
вт800:00−17˚сз11690 0.0 103720
03:00−17˚ю117039 0.0 103820
06:00−17˚вюв116730 0.0 103720
09:00−16˚ююв11630 0.0 103720
12:00−10˚ююв12720 0.0 103637
15:00−10˚ююв34730 0.0 103554
18:00−12˚ююв347735 0.0 103560
21:00−13˚ю348193 0.0 103543
9 декабря, ср
ср900:00−11˚ююв338196 0.0 103537
03:00−9˚ю3482100 0.0 103581
06:00−9˚ююз2386100 0.1 103546
09:00−9˚ююз2496100 0.9 1036150
12:00−9˚юз4794100 2.0 1035412
15:00−8˚юз4893100 0.8 1035479
18:00−9˚ююз41094100 1.3 1035432
21:00−9˚юз41094100 0.7 1035459
10 декабря, чт
чт1000:00−9˚ююз31095100 1.3 1034410
03:00−10˚ююз3995100 0.6 1034392
06:00−10˚ююз2595100 1.3 1033196
09:00−10˚ююз2696100 0.5 1034252
12:00−10˚з239197 0.6 1035262
15:00−10˚зюз019595 0.1 103559
18:00−12˚юз229697 0.3 103642
21:00−12˚юз2396100 0.4 103756